TimeMST,TemperatureF,Dew PointF,Humidity,Sea Level PressureIn,VisibilityMPH,Wind Direction,Wind SpeedMPH,Gust SpeedMPH,PrecipitationIn,Events,Conditions,WindDirDegrees,DateUTC
12:54 AM,15.1,10.9,84,30.27,9.0,South,3.5,-,N/A,,Clear,170,2013-01-02 07:54:00
1:54 AM,14.0,10.0,84,30.29,10.0,WNW,3.5,-,N/A,,Clear,300,2013-01-02 08:54:00
2:54 AM,10.9,8.1,88,30.32,10.0,Calm,Calm,-,N/A,,Clear,0,2013-01-02 09:54:00
3:54 AM,10.0,7.0,87,30.31,10.0,SW,3.5,-,N/A,,Clear,230,2013-01-02 10:54:00
4:54 AM,12.0,7.0,80,30.30,10.0,Calm,Calm,-,N/A,,Clear,0,2013-01-02 11:54:00
5:54 AM,10.9,6.1,81,30.31,10.0,Calm,Calm,-,N/A,,Clear,0,2013-01-02 12:54:00
6:54 AM,8.1,3.9,83,30.33,7.0,Calm,Calm,-,N/A,,Clear,0,2013-01-02 13:54:00
7:54 AM,8.1,5.0,87,30.36,10.0,Calm,Calm,-,N/A,,Clear,0,2013-01-02 14:54:00
8:54 AM,14.0,9.0,80,30.33,10.0,Calm,Calm,-,N/A,,Clear,0,2013-01-02 15:54:00
9:54 AM,17.1,12.0,81,30.35,10.0,Variable,3.5,-,N/A,,Clear,0,2013-01-02 16:54:00
10:54 AM,21.9,15.1,75,30.32,10.0,North,4.6,-,N/A,,Clear,350,2013-01-02 17:54:00
11:54 AM,26.1,17.1,69,30.27,10.0,North,5.8,-,N/A,,Clear,10,2013-01-02 18:54:00
12:54 PM,30.0,18.0,61,30.22,10.0,North,4.6,-,N/A,,Clear,360,2013-01-02 19:54:00
1:54 PM,32.0,18.0,56,30.19,10.0,NNE,8.1,-,N/A,,Clear,30,2013-01-02 20:54:00
2:54 PM,32.0,17.1,54,30.19,10.0,North,5.8,-,N/A,,Clear,360,2013-01-02 21:54:00
3:54 PM,33.1,15.1,48,30.19,10.0,North,5.8,-,N/A,,Clear,350,2013-01-02 22:54:00
4:54 PM,30.0,16.0,56,30.19,10.0,NW,5.8,-,N/A,,Clear,310,2013-01-02 23:54:00
5:54 PM,24.1,18.0,77,30.24,10.0,West,4.6,-,N/A,,Clear,270,2013-01-03 00:54:00
6:54 PM,24.1,18.0,77,30.27,10.0,SW,3.5,-,N/A,,Clear,220,2013-01-03 01:54:00
7:54 PM,21.0,16.0,81,30.28,10.0,South,4.6,-,N/A,,Clear,170,2013-01-03 02:54:00
8:54 PM,21.0,15.1,78,30.25,10.0,SSW,4.6,-,N/A,,Clear,200,2013-01-03 03:54:00
9:54 PM,21.0,14.0,74,30.27,10.0,Calm,Calm,-,N/A,,Clear,0,2013-01-03 04:54:00
10:54 PM,17.1,12.9,84,30.27,8.0,Calm,Calm,-,N/A,,Clear,0,2013-01-03 05:54:00
11:54 PM,18.0,12.9,81,30.25,10.0,Calm,Calm,-,N/A,,Clear,0,2013-01-03 06:54:00